sat.trackr.live / text

‹ back to catalog

STARLINK-30133

NORAD 56837 · 2023-079Q

PAYLOAD ACTIVE UNKNOWN

§ Identity

Operator
Country
US
Launch date
2023-06-04
Launch site
AFETR
Launch vehicle
Mass (kg)
RCS (m²)

Purposes: comms

External: N2YO · Heavens-Above · Gunter

§ Orbital elements

Epoch: 2026-05-25T00:01:14.843136Z

Period
94.27 min
Inclination
43.0043°
Eccentricity
0.0001504
Mean motion
15.27577055 rev/d
Perigee alt
482.0 km
Apogee alt
484.1 km
Semi-major
6,861.2 km
B*
-4.9153e-5
RAAN
35.6814°
Arg perigee
265.5392°
Mean anomaly
94.5288°
Rev number
16,456

§ Raw data

STARLINK-301331 56837U 23079Q   26145.00086624 -.00001614  00000+0 -49153-4 0  99932 56837  43.0043  35.6814 0001504 265.5392  94.5288 15.27577055164566

JSON: /api/v1/satellites/56837 · /tle

For live sub-satellite position, see the globe view (requires WebGL).

§ Visibility from observer

Set your observer location to see the next 7 days of passes ≥ 10°. The values pass through the URL so the page stays shareable.

No JS? Fill the form by hand. The geolocation button needs JavaScript.